No particular awareness of the weather is required.    There are no Weather-warnings


Meteo18 Weather Cam more information Meteo18 Weather Cam


Thunder radar more information blitzortung!


Rain radar more information rain snow radar


Visit our other weather sites:

Template documentation
and downloads

And another site



Weather Underground History page Text

Daily Summary for January 8, 2018 Units:  English    Metric   Both
« Previous Day
Next Day »
Daily Weekly Monthly Yearly Custom
  High: Low: Average:
Temperature: TemperatureC °F 5.0 °F 6.9 °F
Dew Point: DewpointC °F 4.0 °F 5.4 °F
Humidity: Humidity % 86 % 90 %
Wind Speed: WindSpeedKMH mph 0.0 mph 6 mph
Wind Gust: WindSpeedGustKMH mph - -
Wind:- - ENE
Pressure: PressurehPa in 1011.4 in -
Precipitation: 0.0 in    
Historical Graphs
 
 
Tabular Data for January 8, 2018
Time Temperature Dew Point Pressure Wind Wind Speed Wind Gust Humidity Rainfall Rate (Hourly)
TemperatureC °F DewpointC °F PressurehPa in Calm     Humidity % HourlyPrecipMM in
00:04 6.9 °F 5.5 °F 1015.1 in ENE 3.2 mph 14.5 mph 91 % 0.0 in
00:11 6.9 °F 5.7 °F 1015.1 in North 9.7 mph 14.5 mph 92 % 0.0 in
00:16 6.9 °F 5.5 °F 1015.1 in NNE 3.2 mph 14.5 mph 91 % 0.0 in
00:18 6.9 °F 5.5 °F 1015.1 in NNE 14.3 mph 19.3 mph 91 % 0.0 in
00:22 6.9 °F 5.5 °F 1015.1 in NE 7.9 mph 16.1 mph 91 % 0.0 in
00:28 6.9 °F 5.5 °F 1015.1 in NNE 7.9 mph 19.3 mph 91 % 0.0 in
00:34 6.9 °F 5.5 °F 1015.1 in NNE 7.9 mph 17.7 mph 91 % 0.0 in
00:42 6.9 °F 5.5 °F 1015.1 in NNE 16.3 mph 16.3 mph 91 % 0.0 in
00:44 6.9 °F 5.5 °F 1014.8 in NE 11.1 mph 25.7 mph 91 % 0.0 in
00:50 6.9 °F 5.5 °F 1014.8 in NE 6.4 mph 19.3 mph 91 % 0.0 in
00:56 6.9 °F 5.5 °F 1015.1 in NNE 13.0 mph 13.0 mph 91 % 0.0 in
01:02 6.9 °F 5.5 °F 1014.8 in NNE 13.0 mph 22.5 mph 91 % 0.0 in
01:08 6.8 °F 5.4 °F 1014.8 in NNE 6.4 mph 17.7 mph 91 % 0.0 in
01:10 6.8 °F 5.4 °F 1014.8 in NE 11.1 mph 17.7 mph 91 % 0.0 in
01:16 6.8 °F 5.4 °F 1014.8 in NNE 6.4 mph 22.5 mph 91 % 0.0 in
01:26 6.8 °F 5.4 °F 1014.4 in NNW 4.7 mph 16.1 mph 91 % 0.0 in
01:32 6.8 °F 5.4 °F 1014.4 in NNE 6.4 mph 17.7 mph 91 % 0.0 in
01:38 6.8 °F 5.4 °F 1014.8 in NE 13.0 mph 19.3 mph 91 % 0.0 in
01:44 6.8 °F 5.4 °F 1014.4 in NE 11.1 mph 19.3 mph 91 % 0.0 in
01:52 6.7 °F 5.3 °F 1014.4 in NE 6.4 mph 19.3 mph 91 % 0.0 in
02:01 6.7 °F 5.3 °F 1014.4 in NNE 11.1 mph 16.1 mph 91 % 0.0 in
02:07 6.6 °F 5.2 °F 1014.4 in NNE 9.7 mph 17.7 mph 91 % 0.0 in
02:15 6.6 °F 5.2 °F 1014.4 in NNW 6.4 mph 20.9 mph 91 % 0.0 in
02:21 6.6 °F 5.2 °F 1014.4 in North 11.1 mph 17.7 mph 91 % 0.0 in
02:29 6.6 °F 5.2 °F 1014.4 in NE 16.3 mph 17.7 mph 91 % 0.0 in
02:36 6.6 °F 5.4 °F 1014.4 in NNE 14.3 mph 29.0 mph 92 % 0.0 in
02:41 6.6 °F 5.2 °F 1014.4 in NE 11.1 mph 17.7 mph 91 % 0.0 in
02:47 6.6 °F 5.2 °F 1014.8 in NE 7.9 mph 14.5 mph 91 % 0.0 in
02:53 6.5 °F 5.3 °F 1015.1 in NE 9.7 mph 11.3 mph 92 % 0.0 in
02:59 6.5 °F 5.3 °F 1015.1 in North 3.2 mph 11.3 mph 92 % 0.0 in
03:05 6.4 °F 5.2 °F 1015.1 in NNE 3.2 mph 16.1 mph 92 % 0.0 in
03:12 6.4 °F 5.2 °F 1014.8 in NE 9.7 mph 12.9 mph 92 % 0.0 in
03:18 6.4 °F 5.2 °F 1015.1 in ENE 1.4 mph 14.5 mph 92 % 0.0 in
03:21 6.4 °F 5.2 °F 1015.1 in NNE 13.0 mph 14.5 mph 92 % 0.0 in
03:27 6.4 °F 5.2 °F 1014.8 in ENE 13.0 mph 19.3 mph 92 % 0.0 in
03:36 6.4 °F 5.2 °F 1014.8 in NNE 11.1 mph 16.1 mph 92 % 0.0 in
03:41 6.3 °F 5.1 °F 1014.8 in NE 11.1 mph 17.7 mph 92 % 0.0 in
03:42 6.3 °F 5.1 °F 1014.8 in NE 6.4 mph 19.3 mph 92 % 0.0 in
03:48 6.4 °F 5.2 °F 1014.8 in NE 9.7 mph 19.3 mph 92 % 0.0 in
03:55 6.3 °F 5.1 °F 1014.8 in NNE 4.7 mph 19.3 mph 92 % 0.0 in
04:03 6.3 °F 5.1 °F 1014.8 in NNE 11.1 mph 20.9 mph 92 % 0.0 in
04:09 6.2 °F 5.0 °F 1014.4 in NE 20.9 mph 20.9 mph 92 % 0.0 in
04:17 6.2 °F 5.0 °F 1014.8 in NE 7.9 mph 16.1 mph 92 % 0.0 in
05:25 5.7 °F 4.7 °F 1014.4 in NE 6.4 mph 17.7 mph 93 % 0.0 in
08:07 5.3 °F 4.3 °F 1014.4 in NNE 7.9 mph 8.0 mph 93 % 0.0 in
10:08 5.4 °F 4.5 °F 1015.1 in NE 3.2 mph 6.4 mph 94 % 0.0 in
10:14 5.4 °F 4.5 °F 1015.1 in Calm   1.6 mph 94 % 0.0 in
10:20 5.5 °F 4.6 °F 1015.1 in NE 4.7 mph 6.4 mph 94 % 0.0 in
10:26 5.6 °F 4.7 °F 1015.1 in NNE 7.9 mph 9.7 mph 94 % 0.0 in
10:32 5.7 °F 4.8 °F 1015.1 in NNE 4.7 mph 9.7 mph 94 % 0.0 in
10:40 5.8 °F 4.8 °F 1015.1 in North 6.4 mph 8.0 mph 93 % 0.0 in
10:46 5.8 °F 4.8 °F 1015.1 in NE 4.7 mph 6.4 mph 93 % 0.0 in
10:56 5.9 °F 4.9 °F 1015.1 in ENE 1.4 mph 4.8 mph 93 % 0.0 in
11:00 6.0 °F 5.0 °F 1015.1 in Calm   3.2 mph 93 % 0.0 in
11:10 6.4 °F 5.4 °F 1015.5 in Calm   4.8 mph 93 % 0.0 in
11:14 6.4 °F 5.2 °F 1015.5 in NE 1.4 mph 6.4 mph 92 % 0.0 in
11:16 6.4 °F 5.2 °F 1015.5 in NNE 6.4 mph 6.4 mph 92 % 0.0 in
11:24 6.5 °F 5.3 °F 1015.5 in ENE 1.4 mph 4.8 mph 92 % 0.0 in
11:30 6.6 °F 5.2 °F 1015.5 in Calm   6.4 mph 91 % 0.0 in
11:36 6.7 °F 5.3 °F 1015.5 in NE 4.7 mph 6.4 mph 91 % 0.0 in
11:42 6.8 °F 5.3 °F 1015.1 in NNE 11.1 mph 11.3 mph 90 % 0.0 in
11:50 7.1 °F 5.6 °F 1014.8 in ENE 3.2 mph 12.9 mph 90 % 0.0 in
11:56 7.3 °F 5.8 °F 1014.8 in ENE 6.4 mph 8.0 mph 90 % 0.0 in
12:02 7.6 °F 6.1 °F 1014.8 in North 4.7 mph 6.4 mph 90 % 0.0 in
12:04 7.7 °F 6.0 °F 1014.4 in NNE 3.2 mph 11.3 mph 89 % 0.0 in
12:10 7.7 °F 6.0 °F 1014.4 in ENE 1.4 mph 9.7 mph 89 % 0.0 in
12:16 7.7 °F 6.0 °F 1014.4 in NNW 4.7 mph 11.3 mph 89 % 0.0 in
12:26 7.7 °F 6.0 °F 1014.1 in NE 6.4 mph 11.3 mph 89 % 0.0 in
12:30 7.7 °F 5.8 °F 1014.4 in NE 9.7 mph 11.3 mph 88 % 0.0 in
12:38 7.6 °F 5.7 °F 1014.1 in North 3.2 mph 11.3 mph 88 % 0.0 in
12:44 7.6 °F 5.7 °F 1014.4 in ENE 3.2 mph 6.4 mph 88 % 0.0 in
12:46 7.7 °F 5.8 °F 1014.4 in East 1.4 mph 4.8 mph 88 % 0.0 in
12:50 7.8 °F 5.9 °F 1014.4 in East 1.4 mph 4.8 mph 88 % 0.0 in
12:56 7.8 °F 5.9 °F 1014.4 in ENE 4.7 mph 9.7 mph 88 % 0.0 in
13:02 7.7 °F 5.8 °F 1014.4 in East 4.7 mph 8.0 mph 88 % 0.0 in
13:06 7.7 °F 5.8 °F 1014.4 in ENE 1.4 mph 3.2 mph 88 % 0.0 in
13:18 7.9 °F 6.2 °F 1014.1 in NE 6.4 mph 6.4 mph 89 % 0.0 in
13:24 7.9 °F 6.0 °F 1014.1 in NNW 4.7 mph 8.0 mph 88 % 0.0 in
13:26 7.9 °F 6.0 °F 1014.1 in NE 7.9 mph 9.7 mph 88 % 0.0 in
13:34 7.8 °F 5.9 °F 1014.1 in NNE 9.7 mph 12.9 mph 88 % 0.0 in
13:42 7.8 °F 6.1 °F 1013.4 in North 11.1 mph 11.3 mph 89 % 0.0 in
13:54 8.1 °F 6.2 °F 1013.4 in NNE 11.1 mph 12.9 mph 88 % 0.0 in
14:08 8.2 °F 6.3 °F 1013.1 in NNE 9.7 mph 16.1 mph 88 % 0.0 in
14:16 8.2 °F 6.3 °F 1012.8 in NNE 13.0 mph 17.7 mph 88 % 0.0 in
14:20 8.2 °F 6.3 °F 1012.8 in NNW 7.9 mph 19.3 mph 88 % 0.0 in
14:31 8.2 °F 6.3 °F 1012.8 in ENE 6.4 mph 14.5 mph 88 % 0.0 in
14:56 8.4 °F 6.4 °F 1012.4 in NNW 6.4 mph 22.5 mph 87 % 0.0 in
15:02 8.4 °F 6.4 °F 1012.1 in NE 14.3 mph 20.9 mph 87 % 0.0 in
15:10 8.5 °F 6.3 °F 1012.4 in North 9.7 mph 24.1 mph 86 % 0.0 in
15:26 8.5 °F 6.3 °F 1012.4 in NNE 16.3 mph 17.7 mph 86 % 0.0 in
16:37 8.6 °F 6.6 °F 1013.4 in Calm   3.2 mph 87 % 0.0 in
16:38 8.5 °F 6.5 °F 1013.4 in ESE 1.4 mph 3.2 mph 87 % 0.0 in
16:59 8.3 °F 6.3 °F 1012.8 in NNE 4.7 mph 4.8 mph 87 % 0.0 in
17:08 7.9 °F 6.0 °F 1012.8 in NE 3.2 mph 9.7 mph 88 % 0.0 in
17:14 7.6 °F 5.9 °F 1012.8 in NNE 3.2 mph 8.0 mph 89 % 0.0 in
17:25 7.6 °F 6.1 °F 1012.8 in North 4.7 mph 9.7 mph 90 % 0.0 in
17:31 7.3 °F 5.8 °F 1012.4 in North 4.7 mph 11.3 mph 90 % 0.0 in
17:37 7.3 °F 5.8 °F 1012.4 in North 3.2 mph 8.0 mph 90 % 0.0 in
17:43 7.3 °F 5.8 °F 1012.8 in North 7.9 mph 12.9 mph 90 % 0.0 in
18:01 7.2 °F 5.8 °F 1012.4 in NE 6.4 mph 9.7 mph 91 % 0.0 in
18:05 7.3 °F 5.9 °F 1012.4 in North 6.4 mph 14.5 mph 91 % 0.0 in
18:11 7.3 °F 5.9 °F 1012.8 in NE 6.4 mph 6.4 mph 91 % 0.0 in
18:17 7.2 °F 5.8 °F 1012.8 in NNW 3.2 mph 4.8 mph 91 % 0.0 in
18:25 7.2 °F 5.8 °F 1012.8 in NNW 3.2 mph 8.0 mph 91 % 0.0 in
18:29 7.2 °F 5.8 °F 1012.8 in NNE 4.7 mph 4.8 mph 91 % 0.0 in
18:37 7.1 °F 5.7 °F 1012.8 in NNW 3.2 mph 4.8 mph 91 % 0.0 in
18:41 7.1 °F 5.7 °F 1012.8 in NNE 4.7 mph 9.7 mph 91 % 0.0 in
18:53 7.1 °F 5.7 °F 1012.8 in NE 4.7 mph 12.9 mph 91 % 0.0 in
18:59 7.1 °F 5.6 °F 1012.8 in NNE 1.4 mph 11.3 mph 90 % 0.0 in
19:07 7.1 °F 5.6 °F 1012.8 in NNW 4.7 mph 9.7 mph 90 % 0.0 in
19:15 6.9 °F 5.5 °F 1012.8 in NE 1.4 mph 8.0 mph 91 % 0.0 in
19:21 6.9 °F 5.5 °F 1012.8 in North 4.7 mph 9.7 mph 91 % 0.0 in
19:23 6.8 °F 5.4 °F 1012.8 in NE 6.4 mph 9.7 mph 91 % 0.0 in
19:29 6.8 °F 5.4 °F 1012.4 in NE 1.4 mph 6.4 mph 91 % 0.0 in
19:35 6.8 °F 5.4 °F 1012.4 in NNW 1.4 mph 6.4 mph 91 % 0.0 in
19:41 6.8 °F 5.3 °F 1012.4 in NNE 3.2 mph 4.8 mph 90 % 0.0 in
19:47 6.8 °F 5.4 °F 1012.4 in Calm   6.4 mph 91 % 0.0 in
19:57 6.7 °F 5.3 °F 1012.4 in NNE 3.2 mph 11.3 mph 91 % 0.0 in
20:03 6.7 °F 5.3 °F 1012.4 in North 4.7 mph 12.9 mph 91 % 0.0 in
20:09 6.7 °F 5.3 °F 1012.4 in NE 7.9 mph 9.7 mph 91 % 0.0 in
20:15 6.7 °F 5.2 °F 1012.4 in NE 4.7 mph 8.0 mph 90 % 0.0 in
20:17 6.7 °F 5.2 °F 1012.4 in NNE 1.4 mph 4.8 mph 90 % 0.0 in
20:25 6.7 °F 5.3 °F 1012.4 in NNE 1.4 mph 1.6 mph 91 % 0.0 in
20:41 6.6 °F 5.1 °F 1012.4 in Calm   1.6 mph 90 % 0.0 in
20:47 6.6 °F 5.2 °F 1012.4 in Calm   1.6 mph 91 % 0.0 in
20:53 6.4 °F 5.0 °F 1012.4 in North 4.7 mph 4.8 mph 91 % 0.0 in
21:01 6.4 °F 5.0 °F 1012.4 in North 1.4 mph 6.4 mph 91 % 0.0 in
22:28 5.9 °F 4.7 °F 1011.7 in ENE 3.2 mph 8.0 mph 92 % 0.0 in
23:22 5.6 °F 4.6 °F 1011.4 in NNE 1.4 mph 3.2 mph 93 % 0.0 in
23:26 5.6 °F 4.6 °F 1011.4 in Calm   1.6 mph 93 % 0.0 in
23:34 5.4 °F 4.4 °F 1011.4 in Calm   1.6 mph 93 % 0.0 in
23:52 5.0 °F 4.0 °F 1011.7 in Calm     93 % 0.0 in
Meteo18
Compliments of Weather Underground - 4 mb

Script developed by  Jim McMurry - jmcmurry@mwt.net Adapted for the template by  Wim van der Kuil - Leuven-Template.eu

You find our weather info also at:

European Weather Network

Weather Underground

Equipment we use:

Weather-station
Davis Vue

Weather-program
Meteobridge

Weather-server
Raspberry PI 2 B+

Provider
1 and 1

Davis Vue

Meteobridge

Raspberry PI 2 B+

1 and 1